Time,TemperatureF,DewpointF,PressureIn,WindDirection,WindDirectionDegrees,WindSpeedMPH,WindSpeedGustMPH,Humidity,HourlyPrecipIn,Conditions,Clouds,dailyrainin,SoftwareType,DateUTC
2013-05-15 00:02:00,72.0,45.0,-100.00,WNW,295,0.0,1.0,39,-99.99,,,-99.99,,2013-05-15 05:02:00,
2013-05-15 00:32:00,70.0,39.0,-100.00,WNW,300,0.0,0.0,32,-99.99,,,-99.99,,2013-05-15 05:32:00,
2013-05-15 00:42:00,70.0,39.0,-100.00,WNW,300,0.0,0.0,32,-99.99,,,-99.99,,2013-05-15 05:42:00,
2013-05-15 00:52:00,70.0,39.0,-100.00,WNW,300,0.0,0.0,32,-99.99,,,-99.99,,2013-05-15 05:52:00,
2013-05-15 01:02:00,70.0,39.0,-100.00,WNW,300,0.0,0.0,32,-99.99,,,-99.99,,2013-05-15 06:02:00,
2013-05-15 01:11:00,70.0,39.0,-100.00,WNW,300,0.0,0.0,32,-99.99,,,-99.99,,2013-05-15 06:11:00,
2013-05-15 01:32:00,67.0,39.0,-100.00,WNW,295,0.0,0.0,36,-99.99,,,-99.99,,2013-05-15 06:32:00,
2013-05-15 01:42:00,67.0,39.0,-100.00,WNW,295,0.0,0.0,36,-99.99,,,-99.99,,2013-05-15 06:42:00,
2013-05-15 01:52:00,67.0,39.0,-100.00,WNW,295,0.0,0.0,36,-99.99,,,-99.99,,2013-05-15 06:52:00,
2013-05-15 02:01:00,67.0,39.0,-100.00,WNW,295,0.0,0.0,36,-99.99,,,-99.99,,2013-05-15 07:01:00,
2013-05-15 02:11:00,67.0,39.0,-100.00,WNW,295,0.0,0.0,36,-99.99,,,-99.99,,2013-05-15 07:11:00,
2013-05-15 02:12:00,65.0,41.0,-100.00,WNW,290,0.0,0.0,41,-99.99,,,-99.99,,2013-05-15 07:12:00,
2013-05-15 02:32:00,65.0,41.0,-100.00,WNW,290,0.0,0.0,41,-99.99,,,-99.99,,2013-05-15 07:32:00,
2013-05-15 02:42:00,65.0,41.0,-100.00,WNW,290,0.0,0.0,41,-99.99,,,-99.99,,2013-05-15 07:42:00,
2013-05-15 02:52:00,65.0,41.0,-100.00,WNW,290,0.0,0.0,41,-99.99,,,-99.99,,2013-05-15 07:52:00,
2013-05-15 03:02:00,65.0,41.0,-100.00,WNW,290,0.0,0.0,41,-99.99,,,-99.99,,2013-05-15 08:02:00,
2013-05-15 03:32:00,62.0,43.0,-100.00,WNW,300,0.0,0.0,49,-99.99,,,-99.99,,2013-05-15 08:32:00,
2013-05-15 03:42:00,62.0,43.0,-100.00,WNW,300,0.0,0.0,49,-99.99,,,-99.99,,2013-05-15 08:42:00,
2013-05-15 03:53:00,62.0,43.0,-100.00,WNW,300,0.0,0.0,49,-99.99,,,-99.99,,2013-05-15 08:53:00,
2013-05-15 04:01:00,62.0,43.0,-100.00,WNW,300,0.0,0.0,49,-99.99,,,-99.99,,2013-05-15 09:01:00,
2013-05-15 04:11:00,62.0,43.0,-100.00,WNW,300,0.0,0.0,49,-99.99,,,-99.99,,2013-05-15 09:11:00,
2013-05-15 04:12:00,59.0,44.0,-100.00,WNW,300,0.0,0.0,57,-99.99,,,-99.99,,2013-05-15 09:12:00,
2013-05-15 04:33:00,59.0,44.0,-100.00,WNW,300,0.0,0.0,57,-99.99,,,-99.99,,2013-05-15 09:33:00,
2013-05-15 04:42:00,59.0,44.0,-100.00,WNW,300,0.0,0.0,57,-99.99,,,-99.99,,2013-05-15 09:42:00,
2013-05-15 04:53:00,59.0,44.0,-100.00,WNW,300,0.0,0.0,57,-99.99,,,-99.99,,2013-05-15 09:53:00,
2013-05-15 05:02:00,59.0,44.0,-100.00,WNW,300,0.0,0.0,57,-99.99,,,-99.99,,2013-05-15 10:02:00,
2013-05-15 05:12:00,58.0,46.0,-100.00,NW,310,0.0,1.0,64,-99.99,,,-99.99,,2013-05-15 10:12:00,
2013-05-15 05:32:00,58.0,46.0,-100.00,NW,310,0.0,1.0,64,-99.99,,,-99.99,,2013-05-15 10:32:00,
2013-05-15 05:43:00,58.0,46.0,-100.00,NW,310,0.0,1.0,64,-99.99,,,-99.99,,2013-05-15 10:43:00,
2013-05-15 05:52:00,58.0,46.0,-100.00,NW,310,0.0,1.0,64,-99.99,,,-99.99,,2013-05-15 10:52:00,
2013-05-15 06:09:00,58.0,46.0,-100.00,NW,310,0.0,1.0,64,-99.99,,,-99.99,,2013-05-15 11:09:00,
2013-05-15 06:12:00,56.0,47.0,-100.00,NW,315,0.0,0.0,72,-99.99,,,-99.99,,2013-05-15 11:12:00,
2013-05-15 06:39:00,56.0,47.0,-100.00,NW,315,0.0,0.0,72,-99.99,,,-99.99,,2013-05-15 11:39:00,
2013-05-15 06:50:00,56.0,47.0,-100.00,NW,315,0.0,0.0,72,-99.99,,,-99.99,,2013-05-15 11:50:00,
2013-05-15 07:07:00,56.0,47.0,-100.00,NW,315,0.0,0.0,72,-99.99,,,-99.99,,2013-05-15 12:07:00,
2013-05-15 07:12:00,57.0,47.0,-100.00,NW,325,0.0,0.0,69,-99.99,,,-99.99,,2013-05-15 12:12:00,
2013-05-15 07:38:00,57.0,47.0,-100.00,NW,325,0.0,0.0,69,-99.99,,,-99.99,,2013-05-15 12:38:00,
2013-05-15 07:49:00,57.0,47.0,-100.00,NW,325,0.0,0.0,69,-99.99,,,-99.99,,2013-05-15 12:49:00,
2013-05-15 07:57:00,57.0,47.0,-100.00,NW,325,0.0,0.0,69,-99.99,,,-99.99,,2013-05-15 12:57:00,
2013-05-15 08:08:00,57.0,47.0,-100.00,NW,325,0.0,0.0,69,-99.99,,,-99.99,,2013-05-15 13:08:00,
2013-05-15 09:13:00,62.0,44.0,-100.00,NW,325,0.0,0.0,52,-99.99,,,-99.99,,2013-05-15 14:13:00,
2013-05-15 09:39:00,62.0,44.0,-100.00,NW,325,0.0,0.0,52,-99.99,,,-99.99,,2013-05-15 14:39:00,
2013-05-15 09:51:00,62.0,44.0,-100.00,NW,325,0.0,0.0,52,-99.99,,,-99.99,,2013-05-15 14:51:00,
2013-05-15 09:59:00,62.0,44.0,-100.00,NW,325,0.0,0.0,52,-99.99,,,-99.99,,2013-05-15 14:59:00,
2013-05-15 10:08:00,62.0,44.0,-100.00,NW,325,0.0,0.0,52,-99.99,,,-99.99,,2013-05-15 15:08:00,
2013-05-15 10:13:00,63.0,43.0,-100.00,WNW,285,0.0,0.0,47,-99.99,,,-99.99,,2013-05-15 15:13:00,
2013-05-15 10:40:00,63.0,43.0,-100.00,WNW,285,0.0,0.0,47,-99.99,,,-99.99,,2013-05-15 15:40:00,
2013-05-15 10:49:00,63.0,43.0,-100.00,WNW,285,0.0,0.0,47,-99.99,,,-99.99,,2013-05-15 15:49:00,
2013-05-15 11:01:00,63.0,43.0,-100.00,WNW,285,0.0,0.0,47,-99.99,,,-99.99,,2013-05-15 16:01:00,
2013-05-15 11:12:00,67.0,42.0,-100.00,NNW,330,0.0,0.0,41,-99.99,,,-99.99,,2013-05-15 16:12:00,
2013-05-15 11:39:00,67.0,42.0,-100.00,NNW,330,0.0,0.0,41,-99.99,,,-99.99,,2013-05-15 16:39:00,
2013-05-15 11:51:00,67.0,42.0,-100.00,NNW,330,0.0,0.0,41,-99.99,,,-99.99,,2013-05-15 16:51:00,
2013-05-15 11:59:00,67.0,42.0,-100.00,NNW,330,0.0,0.0,41,-99.99,,,-99.99,,2013-05-15 16:59:00,
2013-05-15 12:08:00,67.0,42.0,-100.00,NNW,330,0.0,0.0,41,-99.99,,,-99.99,,2013-05-15 17:08:00,
2013-05-15 12:12:00,67.0,40.0,-100.00,NW,325,0.0,0.0,38,-99.99,,,-99.99,,2013-05-15 17:12:00,
2013-05-15 12:38:00,67.0,40.0,-100.00,NW,325,0.0,0.0,38,-99.99,,,-99.99,,2013-05-15 17:38:00,
2013-05-15 12:49:00,67.0,40.0,-100.00,NW,325,0.0,0.0,38,-99.99,,,-99.99,,2013-05-15 17:49:00,
2013-05-15 12:59:00,67.0,40.0,-100.00,NW,325,0.0,0.0,38,-99.99,,,-99.99,,2013-05-15 17:59:00,
2013-05-15 13:05:00,67.0,40.0,-100.00,NW,325,0.0,0.0,38,-99.99,,,-99.99,,2013-05-15 18:05:00,
2013-05-15 13:13:00,70.0,40.0,-100.00,WSW,240,0.0,0.0,34,-99.99,,,-99.99,,2013-05-15 18:13:00,
2013-05-15 13:38:00,70.0,40.0,-100.00,WSW,240,0.0,0.0,34,-99.99,,,-99.99,,2013-05-15 18:38:00,
2013-05-15 13:48:00,70.0,40.0,-100.00,WSW,240,0.0,0.0,34,-99.99,,,-99.99,,2013-05-15 18:48:00,
2013-05-15 13:57:00,70.0,40.0,-100.00,WSW,240,0.0,0.0,34,-99.99,,,-99.99,,2013-05-15 18:57:00,
2013-05-15 14:07:00,70.0,40.0,-100.00,WSW,240,0.0,0.0,34,-99.99,,,-99.99,,2013-05-15 19:07:00,
2013-05-15 14:13:00,72.0,39.0,-100.00,NW,315,0.0,0.0,30,-99.99,,,-99.99,,2013-05-15 19:13:00,
2013-05-15 14:39:00,72.0,39.0,-100.00,NW,315,0.0,0.0,30,-99.99,,,-99.99,,2013-05-15 19:39:00,
2013-05-15 14:49:00,72.0,39.0,-100.00,NW,315,0.0,0.0,30,-99.99,,,-99.99,,2013-05-15 19:49:00,
2013-05-15 15:12:00,73.0,41.0,-100.00,WSW,255,0.0,1.0,31,-99.99,,,-99.99,,2013-05-15 20:12:00,
2013-05-15 15:40:00,73.0,41.0,-100.00,WSW,255,0.0,1.0,31,-99.99,,,-99.99,,2013-05-15 20:40:00,
2013-05-15 15:47:00,73.0,41.0,-100.00,WSW,255,0.0,1.0,31,-99.99,,,-99.99,,2013-05-15 20:47:00,
2013-05-15 15:57:00,73.0,41.0,-100.00,WSW,255,0.0,1.0,31,-99.99,,,-99.99,,2013-05-15 20:57:00,
2013-05-15 16:07:00,73.0,41.0,-100.00,WSW,255,0.0,1.0,31,-99.99,,,-99.99,,2013-05-15 21:07:00,
2013-05-15 16:13:00,73.0,40.0,-100.00,West,270,0.0,0.0,30,-99.99,,,-99.99,,2013-05-15 21:13:00,
2013-05-15 16:41:00,73.0,40.0,-100.00,West,270,0.0,0.0,30,-99.99,,,-99.99,,2013-05-15 21:41:00,
2013-05-15 17:00:00,73.0,40.0,-100.00,West,270,0.0,0.0,30,-99.99,,,-99.99,,2013-05-15 22:00:00,
2013-05-15 17:08:00,73.0,40.0,-100.00,West,270,0.0,0.0,30,-99.99,,,-99.99,,2013-05-15 22:08:00,
2013-05-15 17:12:00,73.0,42.0,-100.00,WNW,295,0.0,1.0,33,-99.99,,,-99.99,,2013-05-15 22:12:00,
2013-05-15 17:41:00,73.0,42.0,-100.00,WNW,295,0.0,1.0,33,-99.99,,,-99.99,,2013-05-15 22:41:00,
2013-05-15 17:52:00,73.0,42.0,-100.00,WNW,295,0.0,1.0,33,-99.99,,,-99.99,,2013-05-15 22:52:00,
2013-05-15 17:59:00,73.0,42.0,-100.00,WNW,295,0.0,1.0,33,-99.99,,,-99.99,,2013-05-15 22:59:00,
2013-05-15 18:07:00,73.0,42.0,-100.00,WNW,295,0.0,1.0,33,-99.99,,,-99.99,,2013-05-15 23:07:00,
2013-05-15 18:13:00,72.0,43.0,-100.00,West,275,0.0,0.0,35,-99.99,,,-99.99,,2013-05-15 23:13:00,
2013-05-15 18:39:00,72.0,43.0,-100.00,West,275,0.0,0.0,35,-99.99,,,-99.99,,2013-05-15 23:39:00,
2013-05-15 18:50:00,72.0,43.0,-100.00,West,275,0.0,0.0,35,-99.99,,,-99.99,,2013-05-15 23:50:00,
2013-05-15 19:00:00,72.0,43.0,-100.00,West,275,0.0,0.0,35,-99.99,,,-99.99,,2013-05-16 00:00:00,
2013-05-15 19:05:00,72.0,43.0,-100.00,West,275,0.0,0.0,35,-99.99,,,-99.99,,2013-05-16 00:05:00,
2013-05-15 19:37:00,72.0,43.0,-100.00,West,265,0.0,0.0,35,-99.99,,,-99.99,,2013-05-16 00:37:00,
2013-05-15 19:51:00,72.0,43.0,-100.00,West,265,0.0,0.0,35,-99.99,,,-99.99,,2013-05-16 00:51:00,
2013-05-15 19:58:00,72.0,43.0,-100.00,West,265,0.0,0.0,35,-99.99,,,-99.99,,2013-05-16 00:58:00,
2013-05-15 20:06:00,72.0,43.0,-100.00,West,265,0.0,0.0,35,-99.99,,,-99.99,,2013-05-16 01:06:00,
2013-05-15 20:40:00,69.0,43.0,-100.00,West,270,0.0,0.0,40,-99.99,,,-99.99,,2013-05-16 01:40:00,
2013-05-15 20:49:00,69.0,43.0,-100.00,West,270,0.0,0.0,40,-99.99,,,-99.99,,2013-05-16 01:49:00,
2013-05-15 21:00:00,69.0,43.0,-100.00,West,270,0.0,0.0,40,-99.99,,,-99.99,,2013-05-16 02:00:00,
2013-05-15 21:07:00,69.0,43.0,-100.00,West,270,0.0,0.0,40,-99.99,,,-99.99,,2013-05-16 02:07:00,
2013-05-15 21:13:00,64.0,45.0,-100.00,WSW,255,0.0,0.0,50,-99.99,,,-99.99,,2013-05-16 02:13:00,
2013-05-15 21:40:00,64.0,45.0,-100.00,WSW,255,0.0,0.0,50,-99.99,,,-99.99,,2013-05-16 02:40:00,
2013-05-15 21:55:00,64.0,45.0,-100.00,WSW,255,0.0,0.0,50,-99.99,,,-99.99,,2013-05-16 02:55:00,
2013-05-15 22:07:00,64.0,45.0,-100.00,WSW,255,0.0,0.0,50,-99.99,,,-99.99,,2013-05-16 03:07:00,
2013-05-15 22:12:00,62.0,45.0,-100.00,WSW,245,0.0,0.0,52,-99.99,,,-99.99,,2013-05-16 03:12:00,
2013-05-15 22:40:00,62.0,45.0,-100.00,WSW,245,0.0,0.0,52,-99.99,,,-99.99,,2013-05-16 03:40:00,
2013-05-15 22:47:00,62.0,45.0,-100.00,WSW,245,0.0,0.0,52,-99.99,,,-99.99,,2013-05-16 03:47:00,
2013-05-15 22:56:00,62.0,45.0,-100.00,WSW,245,0.0,0.0,52,-99.99,,,-99.99,,2013-05-16 03:56:00,
2013-05-15 23:02:00,62.0,45.0,-100.00,WSW,245,0.0,0.0,52,-99.99,,,-99.99,,2013-05-16 04:02:00,
2013-05-15 23:33:00,60.0,45.0,-100.00,West,275,0.0,0.0,58,-99.99,,,-99.99,,2013-05-16 04:33:00,
2013-05-15 23:42:00,60.0,45.0,-100.00,West,275,0.0,0.0,58,-99.99,,,-99.99,,2013-05-16 04:42:00,
2013-05-15 23:53:00,60.0,45.0,-100.00,West,275,0.0,0.0,58,-99.99,,,-99.99,,2013-05-16 04:53:00,